Home   Weather   Ede   Past weeks
Flag for Netherlands

Past Weather in Ede, Netherlands — Yesterday and Last 2 Weeks

Now
55 °F

Overcast.


Feels Like: 54 °F
Forecast: 59 / 44 °F
Wind: 6 mph from West

Location: Deelen

Current Time: May 27, 2019 at 5:23:33 am

Latest Report: May 27, 2019 at 4:25 am


Visibility: N/A

Pressure: 29.77 "Hg

Humidity: 94%

Dew Point: 54 °F

Location of EdeLocation

Past Weather in Ede — Graph

°F

Ede Temperature Yesterday

Maximum temperature yesterday: 70 °F (at 2:55 pm)
Minimum temperature yesterday: 45 °F (at 2:25 am)
Average temperature yesterday: 59 °F

High & Low Weather Summary for the Past Weeks

 TemperatureHumidityPressure
High75 °F (May 19, 2:25 pm)100% (May 13, 3:25 am)30.72 "Hg (May 13, 3:25 am)
Low30 °F (May 13, 4:55 am)23% (May 23, 5:55 pm)29.65 "Hg (May 19, 2:25 pm)
Average55 °F69%30.06 "Hg
* Reported May 12 3:25 am — May 27 3:55 am, Ede. Weather by CustomWeather, © 2019

Note: Actual official high and low records may vary slightly from our data, if they occured in-between our weather recording intervals... More about our weather records

Advertising

Ede Weather History for the Previous 24 Hours

Scroll right to see more
 ConditionsComfort  
Time TempWeatherWind HumidityBarometerVisibility
3:55 am
Mon, May 27
55 °FDrizzle. Overcast.5 mph94%29.77 "HgN/A
2:55 am55 °FOvercast.6 mph94%29.80 "HgN/A
2:25 am55 °FMostly cloudy.5 mph94%29.77 "HgN/A
1:55 am55 °FDrizzle. Low clouds.7 mph94%29.80 "Hg2 mi
1:25 am57 °FPartly cloudy.9 mph94%29.80 "Hg4 mi
12:55 am57 °FLight rain. Partly cloudy.12 mph94%29.80 "Hg3 mi
12:25 am57 °FPartly cloudy.10 mph94%29.80 "Hg2 mi
11:55 pm
Sun, May 26
57 °FSprinkles. Overcast.13 mph94%29.80 "Hg2 mi
11:25 pm59 °FDrizzle. Mostly cloudy.10 mph82%29.80 "HgN/A
10:55 pm61 °FOvercast.13 mph72%29.80 "HgN/A
10:25 pm63 °FLight rain. Passing clouds.14 mph68%29.80 "HgN/A
9:55 pm63 °FOvercast.12 mph68%29.80 "HgN/A
9:25 pm64 °FMostly cloudy.13 mph64%29.80 "HgN/A
8:55 pm64 °FOvercast.15 mph64%29.80 "HgN/A
7:55 pm66 °FMore clouds than sun.13 mph64%29.80 "HgN/A
7:25 pm70 °FOvercast.14 mph57%29.80 "HgN/A
6:55 pm70 °FMore clouds than sun.14 mph57%29.80 "HgN/A
6:25 pm70 °FMostly cloudy.15 mph57%29.83 "HgN/A
5:55 pm70 °FOvercast.17 mph57%29.83 "HgN/A
5:25 pm70 °FCloudy.15 mph57%29.83 "HgN/A
4:55 pm70 °FOvercast.17 mph53%29.86 "HgN/A
4:25 pm70 °FOvercast.17 mph50%29.86 "HgN/A
3:55 pm68 °FMore clouds than sun.14 mph60%29.86 "HgN/A
3:25 pm70 °FMostly cloudy.15 mph57%29.86 "HgN/A
2:55 pm70 °FCloudy.17 mph57%29.86 "HgN/A
2:25 pm68 °FOvercast.14 mph60%29.89 "HgN/A
1:55 pm68 °FBroken clouds.14 mph60%29.89 "HgN/A
1:25 pm68 °FMostly cloudy.15 mph60%29.89 "HgN/A
12:55 pm68 °FMostly cloudy.12 mph60%29.89 "HgN/A
12:25 pm66 °FOvercast.14 mph64%29.89 "HgN/A
11:55 am66 °FOvercast.13 mph60%29.92 "HgN/A
11:25 am64 °FMostly cloudy.12 mph64%29.92 "HgN/A
10:55 am63 °FOvercast.12 mph68%29.92 "HgN/A
10:25 am61 °FOvercast.12 mph72%29.92 "HgN/A
9:55 am59 °FOvercast.12 mph72%29.92 "HgN/A
9:25 am59 °FMostly cloudy.12 mph72%29.92 "HgN/A
8:55 am57 °FOvercast.10 mph77%29.92 "HgN/A
8:25 am55 °FFog.10 mph82%29.92 "Hg5 mi
7:55 am55 °FFog.10 mph82%29.92 "Hg4 mi
7:25 am54 °FFog.9 mph88%29.95 "Hg4 mi
6:55 am52 °FFog.7 mph88%29.95 "Hg3 mi
6:25 am50 °FFog.7 mph94%29.95 "Hg3 mi
5:55 am48 °FFog.5 mph94%29.95 "Hg3 mi
5:25 am46 °FOvercast.2 mph93%29.95 "HgN/A
Weather by CustomWeather, © 2019

See weather overview